Location: Jetmore Oil Field
(38.1181°N, 99.9337°W)
Time: 00:12:18
(UTC+00:00)

STARLINK-2737 - Visible Passes

Search period start: 24 October 2021 00:00
Search period end: 03 November 2021 00:00
Orbit: 546 x 548 km, 53.1° (Epoch: 23 October)

Date Brightness Start Highest point End Pass type
(mag) Time Alt. Az. Time Alt. Az. Time Alt. Az.
24 Oct 6.5 10:43:57 10° SSE 10:45:46 13° SE 10:47:36 10° E visible
24 Oct 3.6 12:20:39 10° SW 12:24:46 78° NW 12:28:54 10° NE visible
25 Oct 6.0 10:38:04 16° SSE 10:39:21 18° SE 10:42:09 10° E visible
25 Oct 3.7 12:14:28 10° WSW 12:18:30 58° NW 12:22:36 10° NE visible
26 Oct 5.6 10:33:08 24° SE 10:33:08 24° SE 10:36:22 10° ENE visible
26 Oct 4.0 12:08:47 12° WSW 12:12:19 44° NW 12:16:17 10° NE visible
27 Oct 5.6 10:27:59 27° E 10:27:59 27° E 10:30:26 10° ENE visible
27 Oct 4.4 12:03:39 18° W 12:06:12 34° NNW 12:09:59 10° NNE visible
28 Oct 5.9 10:22:43 23° ENE 10:22:43 23° ENE 10:24:26 10° ENE visible
28 Oct 4.7 11:58:21 20° WNW 12:00:08 27° NNW 12:03:42 10° NNE visible
29 Oct 6.3 10:17:20 17° NE 10:17:20 17° NE 10:18:23 10° NE visible
29 Oct 5.0 11:52:58 20° NW 11:54:08 22° NNW 11:57:26 10° NNE visible
30 Oct 6.6 10:11:51 13° NE 10:11:51 13° NE 10:12:19 10° NE visible
30 Oct 5.2 11:47:30 18° NW 11:48:11 19° NNW 11:51:11 10° NNE visible
31 Oct 5.5 11:41:58 16° NNW 11:42:19 16° NNW 11:44:57 10° NNE visible
01 Nov 5.7 11:36:24 14° NNW 11:36:30 14° NNW 11:38:46 10° NNE visible
02 Nov 5.9 11:30:49 13° NNW 11:30:49 13° NNW 11:32:35 10° NNE visible
